Location: Erlenbrunn
(49.1717°N, 7.6142°E)
Time: 03:59:00
(UTC+00:00)

Cosmos 2237 Rocket - Pass Details

Date: 25 November 2020
Orbit: 833 x 851 km, 71.0° (Epoch: 24 January)

Event Time Altitude Azimuth Distance (km) Brightness Sun altitude
Rises 19:12:57 0° 265° (W) 3,381 6.3 -34.5°
Reaches altitude 10° 19:16:18 10° 285° (WNW) 2,452 5.4 -35.1°
Maximum altitude 19:19:52 17° 325° (NW) 2,013 4.5 -35.7°
Enters shadow 19:21:23 15° 344° (NNW) 2,101 4.4 -35.9°
